Погода Анучино

Погода Анучино : погода сейчас, прогноз погоды и архив. Всё, что Вы хотите узнать о погоде Анучино!

Хотите узнать прогноз погоды Анучино? Тогда Вам сюда: Погода Анучино

Поиск расширенной информации на нашем сайте:

Другие новости

Новости СМИ2

Главная страница сайта

Новости сайта

02.10.2013

Напоминаем, что на нашем новом сайте вы можете получить высокодетализированные прогнозы погоды по пунктам России, СНГ и мира (включающие важные для авиации метеовеличины, такие как направление и скорость ветра, видимость, явления погоды, количество и форма облачности, нижняя и верхняя граница облачности), а также ознакомиться с разнообразными материалами по авиационной метеорологии и подборкой полезных ссылок на эту тему.

Сайт Метеоцентр.Азия посвящён разработке технологий оптимизации авиаметеорологического обслуживания, включая проектирование и перспективное создание нескольких автоматизированных авиаметеорологических систем:
- система выпуска высокодетальных прогностических карт явлений погоды для нижнего воздушного пространства по России и ближнему зарубежью;
- система верификации прогнозов TAF (выпускаемых синоптиками официальных АМСГ РФ и ближнего зарубежья) и AUTOTAF (выпускаемых сайтом Метеоцентр.Азия) - выявление ошибок, онлайн-сопоставление с фактической погодой METAR, автоматическое внесение коррективов в прогнозы при резком отклонении фактической погоды от прогноза, подсчёт оправдываемости прогнозов по элементам и в целом;
- система обработки, анализа и отображения авиаметеорологической информации для применения провайдерами метеорологической информации.

Рекомендуем: Срочная компьютерная помощь пушкино - это всегда быстро и надежно.

Погода Анучино - сегодня

Время (UTC), дата Ветер
(°,м/с) 
Видим.   Явления Облачность Т
(°С)
Тd
(°С)
f(%) Тe
(°С)
Pmin
(гПа)
dP
(гПа)
Po
(мм)
O2
(г/м3)
Тmin Tmax R s Состояние
почвы
00 27.04.17 300 (СЗ) 20000 м  в посл. час ливневой дождь  8/8 600 м 
[Sc diur, vesp]
+6.3 +3.3 81 +7  1004.1  -0.6  736  289           
03 27.04.17 010 (С) 20000 м    9/6 600 м средняя 
[Cu med, cong|Ac lent]
+9.6 +3.2 64 +10  1002.9  -1  735  286           
06 27.04.17 340 (С) 20000 м  слаб. ливневой дождь  10/10 600 м кучево-дожд. 
[Cb cap]
+9.1 +3.2 67 +9  1002.1  -0.8  735  286           
09 27.04.17 340 (С) 20000 м  {ливн. осадки}  8/5 600 м средняя 
[Cu med, cong|Ac trans]
+10.7 +0.4 49 +12  1001.9  735  285    +11.7  0.8     
12 27.04.17 240 (ЮЗ) 20000 м  {ливн. осадки}  8/0 средняя 
[Ac trans]
+6.2 +1.1 70 +6  1003.3  736  290           
15 27.04.17 260 (З) 20000 м    6/0 средняя 
[Ac trans]
+5.3 +1.2 75 +5  1002.9  -0.4  735  290           
18 27.04.17 100 (В) 20000 м    9/0 средняя 
[Ac As]
+3.3 +1.1 85 +4  1001.8  -1.2  734  292           
21 27.04.17 250 (З) 20000 м    10/3 600 м средняя, верхняя 
[Sc|Ac trans|Ci sp]
+2.8 +0.7 86 +2  1001  -0.9  734  292  +2.8        влажная 
00 28.04.17 тихо ()   20000 м    8/3 600 м верхняя 
[Cu med, cong|Cc]
+10.5 +2.9 59 +11  999.8  -0.5  733  284           
03 28.04.17 300 (СЗ) 20000 м    9/9 600 м 
[Cu med, cong]
+12.4 -0.1 42 +13  998.3  -1.3  732  282           
06 28.04.17 330 (СЗ) 20000 м  в посл. час гроза{ливн. осадки}  8/8 600 м 
[Cu med, cong]
+12.9 +1.5 46 +13               
09 28.04.17 270 (З) 20000 м  {гроза}  3/3 600 м 
[Cu med, cong]
+12.4 -1.6 38 +13  999  0.7  733  283    +13.8     
12 28.04.17 250 (З) 20000 м  {гроза}  ясно 
+7.7 +1.6 65 +9  1001.6  2.2  734  288           
15 28.04.17 250 (З) 20000 м    ясно 
+3 +1.4 89 +2  1002.2  0.1  734  292           
18 28.04.17 250 (З) 20000 м    ясно 
+0.9 -0.3 92 +2  1001.8  0.1  734  295           
21 28.04.17 250 (З) 20000 м    1/1 600 м 
[Cu med, cong]
+1.3 -0.7 86 -1  1000.9  -0.9  733  294  +0.7        влажная 
00 29.04.17 240 (ЮЗ) 20000 м    8/8 600 м 
[Cu med, cong]
+11.6 +3 55 +12  998.5  -1.5  732  283           
03 29.04.17 260 (З) 20000 м    10/6 600 м верхняя 
[Cu med, cong|Ci sp]
+19.2 -2.8 22 +20  995.7  -2.2  731  275           
06 29.04.17 230 (ЮЗ) 4{11}  20000 м    10/6 600 м средняя 
[Cu med, cong|Ac trans]
+16.9 -3.9 24 +17  995.8  731  278           
09 29.04.17 210 (ЮЗ) 5-10{12}  20000 м    6/6 600 м 
[Cu med, cong]
+16.2 -5 23 +16  994  -1.9  729  278    +19.6       
12 29.04.17 190 (Ю) 3{14}  20000 м    10/10 600 м 
[Sc diur, vesp]
+13.7 -6.7 24 +14  993.2  -0.9  729  280           
15 29.04.17 210 (ЮЗ) 2{12}  20000 м    8/8 600 м 
[Sc diur, vesp]
+13.2 -1.8 35 +14  992.8  -0.4  728  280           
18 29.04.17 230 (ЮЗ) 20000 м    8/8 600 м 
[Sc]
+10.4 +3.2 61 +11  992.1  -0.9  728  282           
21 29.04.17 тихо ()   20000 м    3/0 средняя 
[Ac lent]
+6.4 +3 79 +6  995.1  2.6  730  287  +5.9        сухая 
00 30.04.17 280 (З) 3{14}  20000 м    10/10 600 м 
[Sc]
+12.1 -1.3 39 +12  995.7  730  282           
Время (UTC), дата Ветер
(°,м/с) 
Видим.   Явления Облачность Т
(°С)
Тd
(°С)
f(%) Тe
(°С)
Pmin
(гПа)
dP
(гПа)
Po
(мм)
O2
(г/м3)
Тmin Tmax R s Состояние
почвы

Для получения пояснительной информации подведите курсор к названию столбца.

ПОГОДА Анучино - архив

Всё, что Вы хотите узнать о погоде Анучино - удобно и подробно!

Выберите нужную дату (начиная с 1 января 2015* года) и нажмите кнопку "Найти".
Будут отображены архивные сводки погоды по пункту Анучино, начиная с указанной даты.


Отображать данные в формате CSV (для использования в таблицах Excel)


Внимание! Наш архив погоды предназначен исключительно для личного некоммерческого использования в познавательных целях. Если Вам необходимы официальные справки о состоянии погоды (для производственных, юридических, коммерческих и т.п. целей), обращайтесь в органы Росгидромета.

*Примечание: данная дата относится к архиву по метеостанциям СССР (Россия, СНГ, Балтия).
Архив по метеостанциям Зарубежной Европы и Азии (кроме Китая) хранится 10 дней, по другим регионам земного шара (Китай, Африка, Америка, Австралия, Океания) - 1 день.

Анучино - район местоположения метеостанции


Название, широта, долгота, высота метеостанции:
Анучино 44°ш. 133.1°д. 188 м над ур. моря [Российская Федерация]

Дополнительная информация

В oтличие oт бoльшинства пoгoдных сайтoв мы публикуем пoдрoбную метеoинфoрмацию в детальнoм прoфессиoнальнoм фoрмате.

Характеристики температуры и влажнoсти вoздуха измеряются на высoте 2 м в тени вдали oт зданий и деревьев.
Скoрoсть ветра измеряется на высoте 10 м (на урoвне рoста челoвека скoрoсть ветра ниже в 1.5-2 раза). Если метеoстанция нахoдится в гoрoде или в лесу, тo скoрoсть ветра занижена на 2-4 м/с пo сравнению с oткрытым местoм. Скoрoсть ветра над акватoриями крупных рек и oзёр, а также на вершинах хoлмoв на 2-5 м/с выше, чем в oбычных услoвиях.
Атмoсфернoе давление в разных тoчках местнoсти мoжет значительнo oтличаться oт давления на метеoстанции, в зависимoсти oт услoвий рельефа (при пoдъёме на 10 м давление пoнижается примернo на 1 мм рт.ст.).